GW4419 Weather Reports


time (UTC)temp
F
wind
direction
speed
knots
gust
knots
rain 1hr
in
rain 24hr
in
rain mn
in
humidity
%
barometer
mb
20260505071346 65 53 0.9 1.7 0.00 0.00 0.00 72 1007.3
20260505070845 65 233 0.9 0.9 0.00 0.00 0.00 72 1007.3
20260505070341 65 86 0.0 0.0 0.00 0.00 0.00 72 1007.5
20260505065836 65 269 0.9 0.9 0.00 0.00 0.00 72 1007.5
20260505065333 65 262 0.0 0.0 0.00 0.00 0.00 73 1007.5
20260505064830 65 213 0.0 0.0 0.00 0.00 0.00 72 1007.4
20260505064327 65 190 0.9 1.7 0.00 0.00 0.00 73 1007.3
20260505063825 65 182 1.7 2.6 0.00 0.00 0.00 74 1007.4
20260505063321 65 194 2.6 2.6 0.00 0.00 0.00 72 1007.3
20260505062818 65 1 2.6 2.6 0.00 0.00 0.00 73 1007.3
20260505062316 65 239 0.0 0.0 0.00 0.00 0.00 73 1007.0
20260505061812 65 204 0.0 0.0 0.00 0.00 0.00 73 1006.8
20260505061310 64 113 0.9 0.9 0.00 0.00 0.00 73 1006.9
20260505060807 65 101 0.0 0.9 0.00 0.00 0.00 73 1007.0
20260505060304 65 194 0.0 0.9 0.00 0.00 0.00 73 1006.9
20260505055759 64 60 0.9 0.9 0.00 0.00 0.00 73 1007.1
20260505055256 64 110 0.0 0.0 0.00 0.00 0.00 75 1007.1
20260505054753 64 218 0.0 0.0 0.00 0.00 0.00 74 1007.3
20260505054251 64 191 0.9 0.9 0.00 0.00 0.00 74 1007.4
20260505053749 64 172 0.0 0.0 0.00 0.00 0.00 75 1007.7
20260505053245 64 228 0.0 0.0 0.00 0.00 0.00 75 1007.9
20260505052742 64 248 0.0 0.0 0.00 0.00 0.00 75 1007.7
20260505052240 64 228 0.0 0.0 0.00 0.00 0.00 74 1007.3
20260505051736 64 77 0.0 0.0 0.00 0.00 0.00 74 1007.3
20260505051234 65 98 1.7 1.7 0.00 0.00 0.00 73 1007.2
20260505050732 65 259 0.9 0.9 0.00 0.00 0.00 73 1007.2
20260505050230 65 173 0.0 0.0 0.00 0.00 0.00 73 1007.3
20260505041659 66 216 0.0 0.0 0.00 0.00 0.00 69 1008.0
20260505041157 66 250 0.0 0.0 0.00 0.00 0.00 69 1008.0
20260505040654 66 193 0.0 0.0 0.00 0.00 0.00 69 1007.9
20260505040151 66 100 0.0 0.0 0.00 0.00 0.00 69 1007.8
20260505035648 67 140 1.7 2.6 0.00 0.00 0.00 68 1007.7
20260505035145 67 105 2.6 2.6 0.00 0.00 0.00 68 1007.9
20260505034641 67 144 0.9 1.7 0.00 0.00 0.00 68 1008.1
20260505034138 67 160 0.9 1.7 0.00 0.00 0.00 67 1008.0
20260505033634 67 139 0.0 0.9 0.00 0.00 0.00 67 1008.3
20260505033133 67 171 0.0 0.0 0.00 0.00 0.00 66 1008.3
20260505032630 68 183 0.0 0.0 0.00 0.00 0.00 66 1008.1
20260505032126 68 109 0.0 0.0 0.00 0.00 0.00 65 1008.3
20260505031624 68 128 0.0 0.9 0.00 0.00 0.00 65 1008.4
20260505031119 68 60 0.0 0.9 0.00 0.00 0.00 64 1008.4
20260505030617 69 161 1.7 1.7 0.00 0.00 0.00 63 1008.4
20260505030113 69 181 0.0 0.0 0.00 0.00 0.00 62 1008.4
20260505025608 69 74 0.9 1.7 0.00 0.00 0.00 62 1008.1
20260505025103 69 68 0.0 0.0 0.00 0.00 0.00 62 1008.1
20260505024559 69 142 1.7 2.6 0.00 0.00 0.00 61 1008.0
20260505024057 69 93 0.0 0.0 0.00 0.00 0.00 61 1007.8
20260505023554 69 167 2.6 5.2 0.00 0.00 0.00 61 1007.9
20260505023051 69 177 0.0 0.0 0.00 0.00 0.00 61 1007.9
20260505022549 69 81 0.0 0.9 0.00 0.00 0.00 61 1007.7
20260505022045 70 199 0.0 0.0 0.00 0.00 0.00 60 1007.6
20260505021542 70 203 1.7 1.7 0.00 0.00 0.00 60 1007.6
20260505021039 70 178 0.9 0.9 0.00 0.00 0.00 60 1007.7
20260505020538 70 45 0.0 0.9 0.00 0.00 0.00 59 1007.4
20260505020036 70 283 0.0 0.0 0.00 0.00 0.00 59 1007.4
20260505015533 71 241 0.0 0.0 0.00 0.00 0.00 59 1007.5
20260505015029 71 138 0.0 0.0 0.00 0.00 0.00 58 1007.3
20260505014526 71 190 0.9 1.7 0.00 0.00 0.00 58 1007.2
20260505014024 71 242 0.0 0.0 0.00 0.00 0.00 58 1007.0
20260505013521 71 209 0.9 1.7 0.00 0.00 0.00 57 1006.9
20260505013018 71 261 0.0 0.0 0.00 0.00 0.00 58 1006.9
20260505012516 71 160 0.0 0.0 0.00 0.00 0.00 57 1006.9
20260505012013 71 68 0.0 0.0 0.00 0.00 0.00 56 1006.9
20260505011508 71 193 0.0 0.9 0.00 0.00 0.00 56 1006.7
20260505011005 71 197 0.0 0.0 0.00 0.00 0.00 56 1006.8
20260505010501 72 88 0.9 0.9 0.00 0.00 0.00 55 1006.4
20260505005957 72 187 0.9 0.9 0.00 0.00 0.00 54 1006.6
20260505005454 72 73 0.0 0.0 0.00 0.00 0.00 54 1006.5
20260505004952 73 160 0.0 0.0 0.00 0.00 0.00 54 1006.5
20260505004448 73 191 0.9 1.7 0.00 0.00 0.00 53 1006.5
20260505003945 73 78 0.0 0.0 0.00 0.00 0.00 53 1006.3
20260505003442 74 215 0.0 0.9 0.00 0.00 0.00 52 1006.5
20260505002938 73 201 1.7 2.6 0.00 0.00 0.00 51 1006.6
20260505002435 74 237 0.0 0.0 0.00 0.00 0.00 52 1006.4
20260505001933 74 217 1.7 1.7 0.00 0.00 0.00 52 1006.4
20260505001431 74 113 0.0 0.9 0.00 0.00 0.00 52 1006.4
20260505000927 75 85 0.0 0.0 0.00 0.00 0.00 52 1006.4
20260505000428 75 172 0.0 0.0 0.00 0.00 0.00 53 1006.5
20260504235922 75 222 0.9 0.9 0.00 0.00 0.00 52 1006.5
20260504235420 76 138 0.0 0.0 0.00 0.00 0.00 52 1006.4
20260504234915 76 193 0.0 1.7 0.00 0.00 0.00 52 1006.4
20260504234408 76 274 0.0 0.0 0.00 0.00 0.00 52 1006.5
20260504233904 76 224 0.0 0.0 0.00 0.00 0.00 50 1006.4
20260504233400 76 143 0.9 2.6 0.00 0.00 0.00 50 1006.4
20260504232856 76 217 0.0 0.0 0.00 0.00 0.00 49 1006.6
20260504232354 76 160 0.0 0.9 0.00 0.00 0.00 49 1006.6
20260504231850 76 251 1.7 1.7 0.00 0.00 0.00 50 1006.7
20260504231347 76 133 0.9 1.7 0.00 0.00 0.00 50 1006.6
20260504230843 77 141 3.5 6.1 0.00 0.00 0.00 49 1006.8
20260504230341 77 134 3.5 5.2 0.00 0.00 0.00 49 1006.6
20260504225840 77 193 1.7 2.6 0.00 0.00 0.00 48 1006.7
20260504225335 78 76 0.9 1.7 0.00 0.00 0.00 48 1006.6
20260504224833 77 137 0.9 0.9 0.00 0.00 0.00 49 1006.6
20260504224330 77 194 0.0 0.0 0.00 0.00 0.00 49 1006.7
20260504223826 77 109 2.6 4.3 0.00 0.00 0.00 49 1006.7
20260504223322 77 227 0.9 0.9 0.00 0.00 0.00 48 1006.7
20260504222819 77 221 0.0 0.0 0.00 0.00 0.00 48 1006.8
20260504222316 78 241 0.9 0.9 0.00 0.00 0.00 47 1006.8
20260504221815 78 80 0.0 0.9 0.00 0.00 0.00 49 1006.9
20260504221310 78 213 0.0 0.9 0.00 0.00 0.00 49 1006.7
20260504220808 78 101 0.9 1.7 0.00 0.00 0.00 49 1006.6
20260504220304 78 243 0.9 0.9 0.00 0.00 0.00 47 1006.7
20260504215802 78 118 1.7 4.3 0.00 0.00 0.00 46 1006.7
20260504215258 78 185 4.3 6.1 0.00 0.00 0.00 45 1006.7
20260504214754 79 239 0.0 0.0 0.00 0.00 0.00 46 1006.8
20260504214251 79 135 2.6 2.6 0.00 0.00 0.00 46 1006.9
20260504213747 79 224 0.0 0.9 0.00 0.00 0.00 46 1006.9
20260504213243 79 76 2.6 7.0 0.00 0.00 0.00 46 1006.8
20260504212741 80 138 1.7 4.3 0.00 0.00 0.00 44 1006.8
20260504212237 80 160 1.7 1.7 0.00 0.00 0.00 44 1006.8
20260504211735 80 234 0.9 2.6 0.00 0.00 0.00 45 1006.8
20260504211231 80 226 1.7 1.7 0.00 0.00 0.00 44 1007.0
20260504210728 80 257 1.7 1.7 0.00 0.00 0.00 45 1007.0
20260504210225 80 289 0.9 1.7 0.00 0.00 0.00 46 1007.2
20260504205722 81 287 2.6 2.6 0.00 0.00 0.00 44 1007.4
20260504205220 82 230 1.7 1.7 0.00 0.00 0.00 44 1007.2
20260504204718 82 261 0.9 0.9 0.00 0.00 0.00 45 1007.3
20260504204216 80 244 0.9 0.9 0.00 0.00 0.00 44 1007.5
20260504203715 80 182 0.9 0.9 0.00 0.00 0.00 44 1007.5
20260504203212 80 121 1.7 2.6 0.00 0.00 0.00 43 1007.4
20260504202712 80 97 1.7 4.3 0.00 0.00 0.00 45 1007.5
20260504202209 80 123 2.6 4.3 0.00 0.00 0.00 44 1007.5
20260504201706 81 136 2.6 6.1 0.00 0.00 0.00 44 1007.7
20260504201204 81 282 0.9 1.7 0.00 0.00 0.00 45 1007.6
20260504200701 81 266 0.9 0.9 0.00 0.00 0.00 44 1007.6
20260504200157 80 111 1.7 2.6 0.00 0.00 0.00 45 1007.8
20260504195653 80 185 2.6 4.3 0.00 0.00 0.00 44 1007.9
20260504195149 80 154 0.9 1.7 0.00 0.00 0.00 44 1007.8
20260504194646 82 117 1.7 5.2 0.00 0.00 0.00 45 1008.0
20260504194142 81 329 0.0 0.0 0.00 0.00 0.00 44 1008.0
20260504193639 81 106 0.9 0.9 0.00 0.00 0.00 44 1008.0
20260504193137 81 201 0.9 1.7 0.00 0.00 0.00 45 1008.3
20260504192635 81 193 1.7 1.7 0.00 0.00 0.00 45 1008.1
20260504192133 80 0 2.6 5.2 0.00 0.00 0.00 46 1007.9
20260504191631 80 144 0.9 1.7 0.00 0.00 0.00 45 1007.9
20260504191127 80 187 2.6 4.3 0.00 0.00 0.00 46 1008.0
20260504190623 80 181 3.5 7.0 0.00 0.00 0.00 46 1008.1
20260504190120 80 188 6.1 7.8 0.00 0.00 0.00 45 1008.4
20260504185616 80 213 3.5 5.2 0.00 0.00 0.00 46 1008.3
20260504185113 80 299 0.0 0.0 0.00 0.00 0.00 48 1008.6
20260504184609 79 337 2.6 2.6 0.00 0.00 0.00 47 1008.5
20260504184104 80 79 1.7 6.1 0.00 0.00 0.00 46 1008.4
20260504183601 81 284 0.9 0.9 0.00 0.00 0.00 45 1008.5
20260504183059 82 197 2.6 4.3 0.00 0.00 0.00 46 1008.4
20260504182556 81 256 0.9 0.9 0.00 0.00 0.00 47 1008.4
20260504182053 80 132 2.6 5.2 0.00 0.00 0.00 47 1008.6
20260504181550 80 274 0.9 1.7 0.00 0.00 0.00 46 1008.6
20260504181048 80 183 1.7 2.6 0.00 0.00 0.00 46 1008.6
20260504180547 80 283 2.6 2.6 0.00 0.00 0.00 44 1008.5
20260504180046 80 266 0.9 1.7 0.00 0.00 0.00 48 1008.6
20260504175542 79 217 0.9 0.9 0.00 0.00 0.00 47 1008.6
20260504175039 79 105 3.5 5.2 0.00 0.00 0.00 48 1008.4
20260504174537 80 191 1.7 1.7 0.00 0.00 0.00 47 1008.5
20260504174034 79 318 0.0 0.9 0.00 0.00 0.00 46 1008.5
20260504173531 79 299 1.7 1.7 0.00 0.00 0.00 46 1008.1
20260504173028 80 240 0.9 1.7 0.00 0.00 0.00 47 1008.4
20260504172524 80 35 0.0 0.9 0.00 0.00 0.00 45 1008.5
20260504172021 80 182 0.9 1.7 0.00 0.00 0.00 48 1008.3
20260504171518 79 289 1.7 2.6 0.00 0.00 0.00 47 1008.5
20260504171015 78 232 1.7 2.6 0.00 0.00 0.00 45 1008.5
20260504170510 78 273 1.7 2.6 0.00 0.00 0.00 46 1008.3
20260504160431 76 26 0.0 0.9 0.00 0.00 0.00 47 1008.9
20260504150849 73 200 0.9 1.7 0.00 0.00 0.00 51 1009.7
20260504150346 73 318 1.7 2.6 0.00 0.00 0.00 51 1009.4
20260504141316 67 244 0.9 0.9 0.00 0.00 0.00 58 1009.9
20260504140812 67 208 0.9 0.9 0.00 0.00 0.00 58 1010.1
20260504140308 66 138 0.9 1.7 0.00 0.00 0.00 58 1010.1
20260504130737 64 150 2.6 2.6 0.00 0.00 0.00 61 1010.4
20260504130233 63 105 1.7 2.6 0.00 0.00 0.00 62 1010.4
20260504120156 61 234 0.9 0.9 0.00 0.00 0.00 64 1010.4
20260504110624 60 249 0.0 0.0 0.00 0.00 0.00 65 1010.5
20260504110120 60 276 0.9 0.9 0.00 0.00 0.00 65 1010.7
20260504100545 61 214 0.0 0.0 0.00 0.00 0.00 64 1011.0
20260504081933 62 203 1.7 1.7 0.00 0.00 0.00 62 1011.1
20260504081430 62 220 0.9 0.9 0.00 0.00 0.00 63 1011.0
20260504080926 63 238 0.9 0.9 0.00 0.00 0.00 63 1011.2
20260504080423 63 182 0.0 0.9 0.00 0.00 0.00 62 1011.2